CAPE
0 0 0 0 0 0 0 0 0 0 0 0 0 0 0 0 0 0 0 182 22 231 1261 1334 1353 1563 1530 1586 1688 1877 2124 2264 2165 2096 2081 1920 1670 1834 2212 2151 2182 2094 2025 1839 1679 1750 1783 1654 1571
0 0 0 0 0 0 0 0 0 0 0 0 0 0 0 0 0 0 6 176 33 320 1290 1589 1194 1321 1660 1738 1839 2086 2240 2337 2235 2185 2137 1849 1648 1693 1600 1672 1786 1883 2004 2155 1804 1760 1760 1658 1544
0 0 0 0 0 0 0 0 0 0 0 0 0 0 0 0 0 0 0 4 18 304 889 1900 1179 1262 1679 1861 2001 2279 2343 2239 2206 2201 2052 1472 1382 1067 316 534 797 1433 2389 2045 1878 1763 1766 1554 1314
0 0 0 0 0 0 0 0 0 0 0 0 0 0 0 0 0 0 0 0 3 303 591 1419 1031 1280 1626 1913 2052 2181 2251 2085 2084 2123 1958 1394 872 481 211 203 573 768 1445 2016 1922 1961 1654 1250 1096
0 0 0 0 0 0 0 0 0 0 0 0 0 0 0 0 0 0 0 2 247 398 1309 1768 1036 1319 1681 1937 2093 2047 2004 2001 2026 1988 1814 1082 506 323 367 509 491 205 726 1965 1935 1620 1326 1066 894
0 0 0 0 0 0 0 0 0 0 0 0 0 0 0 0 0 0 0 328 698 1071 1717 1866 1111 1321 1603 1799 1814 1861 1892 1877 1918 1771 1496 681 361 93 233 596 610 422 963 1579 1472 1180 972 833 755
0 0 0 0 0 0 0 0 0 0 0 0 0 0 0 0 25 519 184 556 1211 1774 2044 2125 1825 1551 1379 1509 1490 1693 1671 1745 1784 1701 1351 902 529 252 182 292 685 560 1162 1407 1150 842 727 668 530
0 0 0 0 0 0 0 0 0 0 0 0 0 0 0 2 0 177 560 973 1553 2050 2063 2196 2121 2087 2109 1889 1335 1450 1588 1506 1596 1332 1248 906 499 342 316 704 827 1077 1224 1218 941 711 609 541 436
0 0 0 0 0 0 0 0 0 0 0 0 0 0 0 0 0 84 786 1246 1669 2055 2110 2049 2180 2319 2375 2176 1693 1237 1295 1462 1436 1365 1242 853 676 172 645 732 870 1016 1057 875 619 599 474 432 375
0 0 0 0 0 0 0 0 0 0 0 0 0 0 0 0 0 0 185 986 1530 1860 2138 2071 2226 2380 2502 1957 2131 1768 1800 1769 1609 1807 1528 1608 1192 936 958 723 803 872 824 564 413 418 275 291 526
0 0 0 0 0 0 0 0 0 0 0 0 0 0 0 0 0 0 0 31 1012 1482 1927 2092 2306 2462 2482 2341 2327 2034 1985 1870 2067 1726 1777 1728 1175 1723 1088 1255 811 1226 719 728 417 174 639 510 542
0 0 0 0 0 0 0 0 0 0 0 0 0 0 0 0 0 0 0 0 8 710 1844 2134 2137 2436 2714 2318 2125 2049 2126 1958 1958 1981 2152 1587 1482 1368 1248 432 126 710 1315 896 337 642 857 590 519
0 0 0 0 0 0 0 0 0 0 0 0 0 0 0 0 0 0 0 0 0 13 943 2085 2186 2578 2638 2378 1925 2036 2214 2167 2149 1915 2097 1644 1416 1071 881 762 736 858 1207 1151 490 722 897 680 432
0 0 0 0 0 0 0 0 0 0 0 0 0 0 0 0 0 0 0 0 0 0 553 1558 2292 2430 2807 2212 2075 2141 1976 1887 2061 1955 1894 1601 1362 1549 1019 1213 848 567 1068 665 212 310 497 594 290
0 0 0 0 0 0 0 0 0 0 0 0 0 0 0 0 0 0 0 0 0 0 134 1129 2100 2618 2797 2042 1848 1935 1694 1696 1867 1556 1887 1653 1408 1418 1212 1147 904 617 1052 197 77 88 155 471 212
0 0 0 0 0 0 0 0 0 0 0 0 0 0 0 0 0 0 0 0 0 0 66 437 1072 2497 2883 2400 2264 1817 1499 1576 1743 1307 1514 1604 1217 1135 1332 1040 1207 897 852 160 57 127 93 58 142
0 0 0 0 0 1 0 0 0 0 0 0 0 0 0 0 0 0 0 0 0 0 0 56 1483 1990 2952 2507 2023 1917 1670 1511 1523 1344 1074 1190 1085 920 990 1086 995 814 794 527 88 62 33 14 82
0 0 0 0 0 0 0 0 0 0 0 0 0 0 0 0 0 0 0 0 0 0 0 0 932 2028 2855 2438 2016 1831 1536 1103 1122 925 906 955 983 743 702 976 920 969 640 278 26 35 30 19 78
0 0 0 0 0 0 0 0 0 0 0 0 0 0 0 0 0 0 0 0 0 0 41 110 466 1699 2304 2060 1987 1269 1049 1136 1148 677 579 699 874 537 645 566 549 149 112 83 68 58 55 55 227
0 0 0 0 0 0 0 0 0 0 0 0 0 0 0 0 0 0 0 0 0 0 256 316 664 1310 1935 1472 1309 1212 1314 1128 1059 678 581 368 295 366 278 384 207 24 68 72 31 48 22 42 234
0 0 0 0 0 0 0 0 0 0 0 0 0 0 0 0 0 0 0 0 0 30 425 488 736 1059 1665 1200 1246 1318 1126 862 652 328 399 444 146 58 20 16 61 32 42 30 38 49 25 0 109
0 0 0 0 0 0 0 0 0 0 0 0 0 0 0 0 0 0 0 0 0 4 330 637 738 975 1498 1006 1246 1473 1045 670 660 558 522 343 281 95 12 2 7 9 19 28 32 34 66 69 125
0 0 0 0 0 0 0 0 0 0 0 0 0 0 0 0 0 0 0 0 0 2 406 889 916 1049 1343 1383 1382 1457 1380 940 640 464 538 369 293 173 44 5 17 38 9 3 34 5 64 59 145
0 0 0 3 0 0 0 0 0 0 0 0 0 0 0 0 0 2 29 176 3 541 869 950 901 1162 1306 1417 1559 1431 1324 916 636 502 460 506 405 405 122 44 3 2 4 16 21 23 47 57 84
11 0 0 0 0 0 0 0 0 0 0 2 31 14 10 40 124 164 228 327 61 467 777 193 454 877 993 1313 1526 1318 1107 765 590 510 406 411 388 230 166 38 7 12 5 3 7 30 54 30 23
24 22 0 0 0 0 0 0 0 0 0 8 24 68 113 201 473 417 546 651 503 550 501 52 350 746 678 1064 1343 976 815 614 372 255 191 142 273 100 15 21 10 25 1 8 40 30 45 47 8
27 97 12 39 22 0 1 0 0 0 0 71 130 123 287 477 643 658 693 605 455 154 7 3 100 733 935 936 876 653 544 326 182 103 239 261 101 16 21 3 13 6 3 6 25 6 42 40 31
56 20 50 107 0 0 0 0 0 0 7 98 159 259 478 647 600 523 432 225 51 24 1 48 131 462 645 380 885 499 376 279 122 185 237 118 8 2 0 8 1 10 0 2 7 15 16 25 19
60 57 43 34 83 0 0 0 1 24 12 73 186 358 549 628 597 280 10 2 0 3 0 0 70 376 555 494 739 651 324 149 65 244 177 37 3 1 0 0 0 1 9 8 2 3 10 7 30
341 51 59 70 2 45 0 0 168 140 97 103 433 400 646 486 248 67 3 0 0 0 0 0 55 157 218 188 366 406 343 14 96 110 108 17 0 2 0 0 0 0 3 10 15 11 5 13 34
CIN
0 0 0 0 0 0 0 0 0 0 0 0 0 0 0 0 0 0 0 -41 -86 -78 -78 -229 -271 -219 -194 -158 -110 -68 -14 -2 -2 -5 -2 -4 -18 -5 0 0 -1 0 0 0 0 0 0 0 0
0 0 0 0 0 0 0 0 0 0 0 0 0 0 0 0 0 0 -83 -71 -88 -63 -54 -110 -286 -241 -171 -141 -101 -59 -10 0 -5 -3 0 -7 -16 -10 -14 -3 -7 -2 0 0 0 0 0 0 0
0 0 0 0 0 0 0 0 0 0 0 0 0 0 0 0 0 0 0 -186 -123 -41 -21 -134 -297 -258 -171 -122 -85 -42 -10 -9 -11 -1 -1 -24 -15 -14 -2 -7 -7 -4 0 0 0 0 0 -1 -7
0 0 0 0 0 0 0 0 0 0 0 0 0 0 0 0 0 0 0 0 -176 -31 -24 -185 -302 -241 -165 -121 -79 -47 -27 -26 -18 -8 -6 -18 -9 0 -15 -49 -9 -4 -10 0 0 0 0 -16 -28
0 0 0 0 0 0 0 0 0 0 0 0 0 0 0 0 0 0 0 -36 -62 -28 -49 -187 -305 -237 -160 -103 -69 -63 -39 -33 -20 -5 -6 -18 -27 -100 -55 -7 -29 -3 -10 -2 0 -1 -6 -25 -47
0 0 0 0 0 0 0 0 0 0 0 0 0 0 0 0 0 0 0 -55 -45 -46 -81 -162 -273 -237 -177 -119 -87 -65 -43 -36 -21 -9 -15 -39 -69 -223 -222 -39 -32 -78 -8 -7 -6 -34 -40 -36 -44
0 0 0 0 0 0 0 0 0 0 0 0 0 0 0 0 -6 -58 -75 -41 -42 -71 -94 -118 -153 -171 -205 -168 -138 -66 -46 -32 -11 -6 -9 -22 -52 -155 -166 -77 -47 -94 -12 -8 -22 -40 -41 -41 -35
0 0 0 0 0 0 0 0 0 0 0 0 0 0 0 -2 0 -91 -61 -45 -37 -64 -83 -88 -91 -108 -103 -110 -173 -103 -44 -38 -15 -10 -15 -27 -51 -154 -128 -52 -33 -15 -22 -11 -21 -34 -31 -23 -35
0 0 0 0 0 0 0 0 0 0 0 0 0 0 0 0 0 -85 -54 -40 -43 -47 -57 -64 -57 -64 -69 -72 -111 -142 -82 -25 -16 -12 -11 -21 -27 -58 -27 -4 -28 -28 -20 -26 -46 -42 -40 -20 -20
0 0 0 0 0 0 0 0 0 0 0 0 0 0 0 0 0 0 -57 -33 -37 -49 -43 -46 -44 -40 -42 -92 -64 -74 -36 -9 -4 0 -2 0 0 0 -2 -5 -27 -33 -33 -40 -46 -43 -56 -37 -1
0 0 0 0 0 0 0 0 0 0 0 0 0 0 0 0 0 0 0 -48 -24 -38 -43 -41 -37 -31 -31 -58 -46 -50 -36 -15 0 0 0 0 0 0 0 0 -1 -3 -21 -2 -20 -47 -10 0 0
0 0 0 0 0 0 0 0 0 0 0 0 0 0 0 0 0 0 0 0 -8 -21 -40 -50 -39 -36 -31 -47 -57 -32 -29 -3 0 0 0 0 0 0 0 0 -6 0 0 0 -5 0 0 0 0
0 0 0 0 0 0 0 0 0 0 0 0 0 0 0 0 0 0 0 0 0 -11 -30 -41 -46 -27 -48 -46 -62 -32 -27 -7 0 0 0 0 0 0 0 -1 -1 0 0 0 -15 -1 0 0 0
0 0 0 0 0 0 0 0 0 0 0 0 0 0 0 0 0 0 0 0 0 0 -25 -52 -61 -33 -19 -78 -76 -44 -46 -36 -8 0 0 0 0 0 0 0 0 -8 0 0 -25 -14 0 0 0
0 0 0 0 0 0 0 0 0 0 0 0 0 0 0 0 0 0 0 0 0 0 -47 -55 -67 -36 -18 -105 -95 -75 -48 -45 -28 -23 0 0 0 0 0 0 0 0 0 -2 -39 -9 -3 -1 0
0 0 0 0 0 0 0 0 0 0 0 0 0 0 0 0 0 0 0 0 0 0 -92 -70 -70 -44 -21 -62 -51 -76 -99 -60 -36 -56 -1 0 0 0 0 0 0 0 0 -3 -15 0 -10 -11 -10
0 0 0 0 0 0 0 0 0 0 0 0 0 0 0 0 0 0 0 0 0 0 0 -53 -56 -53 -13 -37 -51 -62 -95 -64 -52 -57 -54 0 0 0 0 0 0 0 0 0 -2 -3 -26 0 -24
0 0 0 0 0 0 0 0 0 0 0 0 0 0 0 0 0 0 0 0 0 0 0 0 -70 -53 -12 -34 -51 -66 -89 -140 -107 -101 -82 -28 0 0 0 0 0 0 0 0 -16 -18 -23 -12 -2
0 0 0 0 0 0 0 0 0 0 0 0 0 0 0 0 0 0 0 0 0 0 -181 -151 -118 -91 -47 -65 -79 -177 -186 -149 -102 -147 -121 -67 -11 -4 0 0 0 -4 0 -5 -16 -8 -14 -26 -4
0 0 0 0 0 0 0 0 0 0 0 0 0 0 0 0 0 0 0 0 0 0 -151 -132 -116 -116 -81 -146 -178 -175 -107 -137 -93 -131 -127 -132 -88 -27 -2 0 0 -10 -9 -1 -2 -3 -16 -28 -11
0 0 0 0 0 0 0 0 0 0 0 0 0 0 0 0 0 0 0 0 0 -71 -109 -132 -109 -131 -109 -203 -155 -110 -103 -160 -177 -230 -159 -119 -145 -141 -49 -6 0 -4 0 0 -8 -3 -12 0 -11
0 0 0 0 0 0 0 0 0 0 0 0 0 0 0 0 0 0 0 0 0 -66 -111 -109 -120 -120 -139 -222 -149 -92 -141 -226 -197 -177 -153 -138 -103 -129 -3 0 -1 -3 0 0 -6 -4 -15 -14 0
0 0 0 0 0 0 0 0 0 0 0 0 0 0 0 0 0 0 0 0 0 -3 -100 -110 -109 -104 -154 -154 -125 -98 -61 -138 -171 -176 -123 -120 -97 -86 -131 -2 -21 -2 0 0 -5 0 -13 -18 -1
0 0 0 0 0 0 0 0 0 0 0 0 0 0 0 0 -4 -35 -93 -66 -117 -22 -92 -137 -124 -72 -105 -117 -82 -96 -66 -103 -138 -175 -138 -83 -54 -15 -74 -94 -1 0 -1 0 0 -1 -3 -12 -6
0 0 0 0 0 0 0 0 0 0 0 0 0 -12 -15 -7 -6 -4 -4 -15 -101 -58 -92 -274 -193 -96 -138 -100 -60 -79 -80 -100 -137 -150 -143 -95 -52 -53 -18 0 -1 0 -15 0 0 0 0 -7 -6
0 0 0 0 0 0 0 0 0 0 0 0 -1 -1 -1 0 0 -10 -16 -19 -48 -56 -99 -309 -177 -113 -166 -92 -47 -87 -102 -120 -178 -210 -173 -172 -81 -90 -7 -5 0 0 0 0 0 0 0 0 0
0 0 0 0 0 0 0 0 0 0 0 -1 0 0 0 0 0 -3 -22 -46 -63 -145 -298 -52 -250 -91 -90 -83 -87 -117 -138 -186 -238 -255 -180 -129 -145 -4 -1 0 0 0 0 0 0 0 -1 0 0
0 0 0 0 0 0 0 0 0 -1 0 0 0 0 0 0 -18 -52 -67 -96 -169 -153 0 -253 -202 -110 -88 -127 -60 -110 -114 -104 -236 -212 -179 -176 -1 0 0 0 0 0 0 -1 0 0 0 0 -1
0 0 0 -1 0 0 0 0 -1 -1 0 -1 -1 -1 0 0 -10 -72 -50 0 0 0 0 0 -237 -86 -76 -74 -59 -61 -105 -205 -255 -178 -190 -224 0 -2 0 0 0 -70 0 0 0 0 0 0 0
0 0 0 0 0 0 0 0 -5 0 -1 -1 -3 -1 0 -1 -32 -74 -3 0 0 0 0 -19 -190 -96 -86 -102 -90 -88 -83 -259 -210 -196 -201 -11 0 0 0 0 0 0 0 0 0 0 0 0 0
Wind_Speed
nan nan nan nan nan nan nan nan nan nan nan nan nan nan nan nan nan nan nan 28 nan 28 27 24 24 25 24 24 22 24 28 31 31 33 32 29 32 33 33 34 32 31 33 34 30 30 31 29 29
nan nan nan nan nan nan nan nan nan nan nan nan nan nan nan nan nan nan nan 31 nan 27 28 27 25 24 24 24 24 24 29 30 31 32 32 31 32 33 31 34 33 32 27 34 32 28 29 30 28
nan nan nan nan nan nan nan nan nan nan nan nan nan nan nan nan nan nan nan nan nan 26 26 31 27 25 26 25 25 23 27 30 31 32 29 28 30 34 26 16 19 22 19 26 27 28 27 30 29
nan nan nan nan nan nan nan nan nan nan nan nan nan nan nan nan nan nan nan nan nan 26 26 33 28 27 27 28 27 26 28 27 28 32 28 27 29 31 36 9 14 7 13 18 16 20 25 29 30
nan nan nan nan nan nan nan nan nan nan nan nan nan nan nan nan nan nan nan nan 31 28 28 28 26 26 27 26 27 26 26 27 28 27 30 32 42 35 32 25 28 17 15 14 20 21 21 28 31
nan nan nan nan nan nan nan nan nan nan nan nan nan nan nan nan nan nan nan 32 30 30 28 26 23 23 24 25 25 24 25 27 28 29 29 44 32 nan 21 8 15 27 7 15 21 24 23 27 30
nan nan nan nan nan nan nan nan nan nan nan nan nan nan nan nan nan 20 27 29 29 31 26 25 24 22 22 23 25 22 23 24 26 27 36 35 28 18 23 23 24 22 23 24 27 25 24 28 29
nan nan nan nan nan nan nan nan nan nan nan nan nan nan nan nan nan 19 25 27 30 31 29 26 25 24 21 22 24 22 21 24 25 29 34 29 22 23 16 11 19 21 25 24 26 24 22 23 29
nan nan nan nan nan nan nan nan nan nan nan nan nan nan nan nan nan nan 25 26 28 31 28 28 26 23 23 19 23 23 23 24 26 29 28 30 22 20 19 18 24 27 25 25 24 25 30 30 29
nan nan nan nan nan nan nan nan nan nan nan nan nan nan nan nan nan nan 21 25 27 31 27 29 28 23 23 21 22 22 22 23 24 28 29 24 18 20 22 24 25 24 20 27 20 24 32 24 29
nan nan nan nan nan nan nan nan nan nan nan nan nan nan nan nan nan nan nan nan 28 29 26 28 30 27 23 21 22 21 18 23 25 27 26 23 19 17 21 20 20 16 24 23 19 20 13 17 23
nan nan nan nan nan nan nan nan nan nan nan nan nan nan nan nan nan nan nan nan nan 31 28 29 33 31 27 22 22 23 21 21 26 30 25 23 20 21 20 18 16 14 17 17 17 14 14 19 20
nan nan nan nan nan nan nan nan nan nan nan nan nan nan nan nan nan nan nan nan nan nan 29 31 33 31 32 22 25 23 23 22 27 31 33 24 20 20 18 16 15 13 16 16 17 21 16 20 18
nan nan nan nan nan nan nan nan nan nan nan nan nan nan nan nan nan nan nan nan nan nan 29 30 31 34 31 26 24 26 24 25 27 30 32 28 24 19 15 12 14 13 17 20 26 20 20 21 19
nan nan nan nan nan nan nan nan nan nan nan nan nan nan nan nan nan nan nan nan nan nan 27 27 30 36 29 31 27 28 22 25 28 30 33 27 23 20 17 14 15 14 17 23 nan nan 27 22 22
nan nan nan nan nan nan nan nan nan nan nan nan nan nan nan nan nan nan nan nan nan nan nan 25 29 35 30 31 27 28 25 25 26 30 31 28 23 22 20 17 18 17 17 23 nan 25 nan nan 27
nan nan nan nan nan nan nan nan nan nan nan nan nan nan nan nan nan nan nan nan nan nan nan nan 29 33 32 31 27 28 31 23 26 28 32 30 23 22 21 18 19 23 27 24 nan nan nan nan nan
nan nan nan nan nan nan nan nan nan nan nan nan nan nan nan nan nan nan nan nan nan nan nan nan 31 33 34 32 26 29 29 24 26 26 30 32 25 25 22 22 21 26 28 30 nan nan nan nan nan
nan nan nan nan nan nan nan nan nan nan nan nan nan nan nan nan nan nan nan nan nan nan nan 25 31 33 34 32 31 31 32 29 26 26 29 30 29 26 24 25 24 24 31 nan nan nan nan nan 29
nan nan nan nan nan nan nan nan nan nan nan nan nan nan nan nan nan nan nan nan nan nan 30 28 31 33 32 32 32 32 33 33 27 25 28 30 30 29 27 25 26 nan nan nan nan nan nan nan 28
nan nan nan nan nan nan nan nan nan nan nan nan nan nan nan nan nan nan nan nan nan nan 31 29 31 32 34 36 32 32 36 37 30 26 25 31 32 nan nan nan nan nan nan nan nan nan nan nan 27
nan nan nan nan nan nan nan nan nan nan nan nan nan nan nan nan nan nan nan nan nan nan 33 30 31 33 39 38 31 36 38 37 31 29 28 30 32 nan nan nan nan nan nan nan nan nan nan nan 28
nan nan nan nan nan nan nan nan nan nan nan nan nan nan nan nan nan nan nan nan nan nan 36 30 31 31 38 36 34 36 36 40 37 32 32 31 34 33 nan nan nan nan nan nan nan nan nan nan 32
nan nan nan nan nan nan nan nan nan nan nan nan nan nan nan nan nan nan nan 41 nan 51 39 37 28 31 36 31 32 34 36 43 40 35 33 31 31 32 32 nan nan nan nan nan nan nan nan nan nan
nan nan nan nan nan nan nan nan nan nan nan nan nan nan nan nan 45 44 45 43 nan 45 40 34 27 29 32 30 31 34 37 40 40 37 34 32 32 33 32 nan nan nan nan nan nan nan nan nan nan
nan nan nan nan nan nan nan nan nan nan nan nan nan nan 33 38 43 49 51 50 46 44 39 nan 25 32 36 30 34 36 37 40 39 37 32 30 30 31 nan nan nan nan nan nan nan nan nan nan nan
nan nan nan nan nan nan nan nan nan nan nan nan 39 35 34 36 42 50 51 51 50 46 nan nan 30 33 34 30 31 36 38 40 37 36 33 31 30 nan nan nan nan nan nan nan nan nan nan nan nan
nan nan nan 25 nan nan nan nan nan nan nan nan 27 30 36 39 43 45 49 51 nan nan nan nan 33 34 32 27 33 37 39 41 39 37 33 29 nan nan nan nan nan nan nan nan nan nan nan nan nan
nan nan nan nan nan nan nan nan nan nan nan nan 23 38 35 36 43 48 nan nan nan nan nan nan nan 30 30 26 34 40 43 41 nan 35 30 nan nan nan nan nan nan nan nan nan nan nan nan nan nan
33 nan nan nan nan nan nan nan 27 25 nan 29 42 33 31 34 43 nan nan nan nan nan nan nan nan 32 29 33 37 42 43 nan nan 32 27 nan nan nan nan nan nan nan nan nan nan nan nan nan nan
Wind_Direction
nan nan nan nan nan nan nan nan nan nan nan nan nan nan nan nan nan nan nan 292 nan 295 299 315 306 309 311 316 317 321 325 328 328 324 322 320 311 300 289 282 279 283 284 281 269 263 258 252 247
nan nan nan nan nan nan nan nan nan nan nan nan nan nan nan nan nan nan nan 298 nan 301 303 311 312 308 310 313 318 324 328 330 333 333 327 321 319 306 297 278 269 277 279 283 276 261 253 251 244
nan nan nan nan nan nan nan nan nan nan nan nan nan nan nan nan nan nan nan nan nan 306 310 302 315 311 311 311 312 317 326 329 331 330 330 325 322 314 245 187 267 251 292 288 277 267 254 243 243
nan nan nan nan nan nan nan nan nan nan nan nan nan nan nan nan nan nan nan nan nan 313 307 306 310 309 311 312 315 321 325 325 328 326 329 323 296 284 270 180 284 232 275 292 279 265 258 252 244
nan nan nan nan nan nan nan nan nan nan nan nan nan nan nan nan nan nan nan nan 311 310 297 307 311 312 310 309 312 316 320 323 324 324 314 309 300 307 311 283 269 168 201 248 272 261 257 254 249
nan nan nan nan nan nan nan nan nan nan nan nan nan nan nan nan nan nan nan 306 307 304 299 304 312 316 312 307 306 310 314 318 325 321 312 307 316 nan 313 331 276 307 344 286 273 269 254 245 244
nan nan nan nan nan nan nan nan nan nan nan nan nan nan nan nan nan 272 290 300 303 300 303 307 315 321 312 309 305 306 311 317 319 323 313 311 323 313 300 287 288 290 283 270 273 270 276 263 244
nan nan nan nan nan nan nan nan nan nan nan nan nan nan nan nan nan 275 283 294 299 302 306 308 313 317 316 315 306 309 307 308 310 318 317 308 314 309 324 285 288 296 278 263 268 268 270 267 257
nan nan nan nan nan nan nan nan nan nan nan nan nan nan nan nan nan nan 279 289 295 299 308 309 310 315 314 314 308 311 312 306 311 319 308 298 310 313 302 310 279 279 280 265 262 270 270 266 255
nan nan nan nan nan nan nan nan nan nan nan nan nan nan nan nan nan nan 275 286 295 300 307 307 306 309 312 310 312 319 321 325 328 330 324 315 311 315 302 296 292 288 267 267 258 268 275 279 259
nan nan nan nan nan nan nan nan nan nan nan nan nan nan nan nan nan nan nan nan 288 293 302 306 302 304 309 306 307 304 312 319 324 336 328 323 302 304 302 284 297 275 252 248 253 251 254 276 246
nan nan nan nan nan nan nan nan nan nan nan nan nan nan nan nan nan nan nan nan nan 289 301 301 304 307 304 306 311 313 316 320 319 326 331 320 304 310 305 288 307 279 239 251 240 228 249 251 240
nan nan nan nan nan nan nan nan nan nan nan nan nan nan nan nan nan nan nan nan nan nan 294 300 304 308 305 315 309 314 315 319 322 322 326 323 309 308 301 283 293 268 250 240 243 242 254 243 232
nan nan nan nan nan nan nan nan nan nan nan nan nan nan nan nan nan nan nan nan nan nan 285 296 304 305 307 305 309 304 315 319 320 322 326 336 315 306 310 288 284 272 249 234 232 232 252 238 241
nan nan nan nan nan nan nan nan nan nan nan nan nan nan nan nan nan nan nan nan nan nan 279 295 302 301 311 305 304 304 312 315 321 323 328 334 329 321 310 295 276 283 256 247 nan nan 218 240 236
nan nan nan nan nan nan nan nan nan nan nan nan nan nan nan nan nan nan nan nan nan nan nan 293 297 302 308 302 302 303 309 312 315 321 324 333 330 320 310 298 276 267 276 260 nan 244 nan nan 237
nan nan nan nan nan nan nan nan nan nan nan nan nan nan nan nan nan nan nan nan nan nan nan nan 295 301 305 297 297 301 307 312 310 320 320 327 327 320 307 291 285 273 271 274 nan nan nan nan nan
nan nan nan nan nan nan nan nan nan nan nan nan nan nan nan nan nan nan nan nan nan nan nan nan 288 298 299 287 290 292 292 296 300 318 318 323 319 320 306 288 285 278 270 275 nan nan nan nan nan
nan nan nan nan nan nan nan nan nan nan nan nan nan nan nan nan nan nan nan nan nan nan nan 284 292 298 293 292 285 285 292 289 295 312 320 319 307 313 310 284 280 283 274 nan nan nan nan nan 243
nan nan nan nan nan nan nan nan nan nan nan nan nan nan nan nan nan nan nan nan nan nan 280 286 292 297 295 285 279 283 290 292 291 303 311 313 312 308 306 289 272 nan nan nan nan nan nan nan 244
nan nan nan nan nan nan nan nan nan nan nan nan nan nan nan nan nan nan nan nan nan nan 280 281 289 296 292 287 284 285 288 281 285 297 309 307 312 nan nan nan nan nan nan nan nan nan nan nan 243
nan nan nan nan nan nan nan nan nan nan nan nan nan nan nan nan nan nan nan nan nan nan 275 277 283 294 290 292 297 297 293 293 292 301 309 304 312 nan nan nan nan nan nan nan nan nan nan nan 245
nan nan nan nan nan nan nan nan nan nan nan nan nan nan nan nan nan nan nan nan nan nan 271 268 277 288 291 295 297 290 296 292 290 296 303 307 310 308 nan nan nan nan nan nan nan nan nan nan 248
nan nan nan nan nan nan nan nan nan nan nan nan nan nan nan nan nan nan nan 244 nan 260 262 259 264 279 283 285 292 293 292 290 288 294 298 298 305 302 297 nan nan nan nan nan nan nan nan nan nan
nan nan nan nan nan nan nan nan nan nan nan nan nan nan nan nan 250 245 240 241 nan 259 258 253 254 267 271 278 280 283 282 286 290 294 299 300 302 293 291 nan nan nan nan nan nan nan nan nan nan
nan nan nan nan nan nan nan nan nan nan nan nan nan nan 262 252 247 243 241 241 243 245 253 nan 252 262 265 270 273 276 278 277 279 287 295 299 304 299 nan nan nan nan nan nan nan nan nan nan nan
nan nan nan nan nan nan nan nan nan nan nan nan 266 265 258 249 242 241 241 237 238 240 nan nan 248 262 265 271 268 272 273 276 277 286 291 295 296 nan nan nan nan nan nan nan nan nan nan nan nan
nan nan nan 213 nan nan nan nan nan nan nan nan 269 261 254 248 244 239 236 236 nan nan nan nan 246 255 263 268 265 266 269 269 273 280 282 288 nan nan nan nan nan nan nan nan nan nan nan nan nan
nan nan nan nan nan nan nan nan nan nan nan nan 269 258 253 247 242 241 nan nan nan nan nan nan nan 247 255 252 257 261 263 267 nan 277 277 nan nan nan nan nan nan nan nan nan nan nan nan nan nan
153 nan nan nan nan nan nan nan 201 244 nan 278 265 256 256 250 246 nan nan nan nan nan nan nan nan 246 248 245 249 252 258 nan nan 273 275 nan nan nan nan nan nan nan nan nan nan nan nan nan nan